Year,Month,Day,Hour,Minute,Value (Times are PST for temperature in C)
2017,09,03,00,00,24.40
2017,09,03,00,01,24.40
2017,09,03,00,02,24.40
2017,09,03,00,03,24.40
2017,09,03,00,04,24.40
2017,09,03,00,05,24.40
2017,09,03,00,06,24.40
2017,09,03,00,07,24.40
2017,09,03,00,08,24.30
2017,09,03,00,09,24.30
2017,09,03,00,10,24.30
2017,09,03,00,11,24.30
2017,09,03,00,12,24.40
2017,09,03,00,13,24.40
2017,09,03,00,14,24.40
2017,09,03,00,15,24.40
2017,09,03,00,16,24.40
2017,09,03,00,17,24.40
2017,09,03,00,18,24.40
2017,09,03,00,19,24.30
2017,09,03,00,20,24.30
2017,09,03,00,21,24.30
2017,09,03,00,22,24.30
2017,09,03,00,23,24.30
2017,09,03,00,24,24.30
2017,09,03,00,25,24.30
2017,09,03,00,26,24.30
2017,09,03,00,27,24.30
2017,09,03,00,28,24.20
2017,09,03,00,29,24.20
2017,09,03,00,30,24.20
2017,09,03,00,31,24.10
2017,09,03,00,32,24.10
2017,09,03,00,33,24.00
2017,09,03,00,34,24.00
2017,09,03,00,35,23.90
2017,09,03,00,36,23.90
2017,09,03,00,37,23.90
2017,09,03,00,38,23.80
2017,09,03,00,39,23.80
2017,09,03,00,40,23.80
2017,09,03,00,41,23.70
2017,09,03,00,42,23.70
2017,09,03,00,43,23.70
2017,09,03,00,44,23.70
2017,09,03,00,45,23.60
2017,09,03,00,46,23.60
2017,09,03,00,47,23.50
2017,09,03,00,48,23.40
2017,09,03,00,49,23.30
2017,09,03,00,50,23.10
2017,09,03,00,51,23.00
2017,09,03,00,52,22.80
2017,09,03,00,53,22.60
2017,09,03,00,54,22.40
2017,09,03,00,55,22.30
2017,09,03,00,56,22.10
2017,09,03,00,57,22.00
2017,09,03,00,58,21.80
2017,09,03,00,59,21.70
2017,09,03,01,00,21.50
2017,09,03,01,01,21.40
2017,09,03,01,02,21.30
2017,09,03,01,03,21.20
2017,09,03,01,04,21.10
2017,09,03,01,05,21.10
2017,09,03,01,06,21.10
2017,09,03,01,07,21.10
2017,09,03,01,08,21.10
2017,09,03,01,09,21.10
2017,09,03,01,10,21.10
2017,09,03,01,11,21.10
2017,09,03,01,12,21.10
2017,09,03,01,13,21.10
2017,09,03,01,14,21.20
2017,09,03,01,15,21.30
2017,09,03,01,16,21.30
2017,09,03,01,17,21.40
2017,09,03,01,18,21.50
2017,09,03,01,19,21.50
2017,09,03,01,20,21.50
2017,09,03,01,21,21.60
2017,09,03,01,22,21.60
2017,09,03,01,23,21.60
2017,09,03,01,24,21.60
2017,09,03,01,25,21.60
2017,09,03,01,26,21.60
2017,09,03,01,27,21.60
2017,09,03,01,28,21.70
2017,09,03,01,29,21.70
2017,09,03,01,30,21.70
2017,09,03,01,31,21.70
2017,09,03,01,32,21.70
2017,09,03,01,33,21.60
2017,09,03,01,34,21.60
2017,09,03,01,35,21.60
2017,09,03,01,36,21.60
2017,09,03,01,37,21.60
2017,09,03,01,38,21.50
2017,09,03,01,39,21.50
2017,09,03,01,40,21.50
2017,09,03,01,41,21.50
2017,09,03,01,42,21.40
2017,09,03,01,43,21.40
2017,09,03,01,44,21.40
2017,09,03,01,45,21.40
2017,09,03,01,46,21.40
2017,09,03,01,47,21.40
2017,09,03,01,48,21.40
2017,09,03,01,49,21.40
2017,09,03,01,50,21.40
2017,09,03,01,51,21.40
2017,09,03,01,52,21.30
2017,09,03,01,53,21.30
2017,09,03,01,54,21.30
2017,09,03,01,55,21.30
2017,09,03,01,56,21.30
2017,09,03,01,57,21.20
2017,09,03,01,58,21.20
2017,09,03,01,59,21.10
2017,09,03,02,00,21.10
2017,09,03,02,01,21.00
2017,09,03,02,02,21.00
2017,09,03,02,03,20.90
2017,09,03,02,04,20.90
2017,09,03,02,05,20.80
2017,09,03,02,06,20.70
2017,09,03,02,07,20.60
2017,09,03,02,08,20.60
2017,09,03,02,09,20.50
2017,09,03,02,10,20.50
2017,09,03,02,11,20.40
2017,09,03,02,12,20.40
2017,09,03,02,13,20.30
2017,09,03,02,14,20.30
2017,09,03,02,15,20.30
2017,09,03,02,16,20.30
2017,09,03,02,17,20.20
2017,09,03,02,18,20.20
2017,09,03,02,19,20.20
2017,09,03,02,20,20.20
2017,09,03,02,21,20.20
2017,09,03,02,22,20.20
2017,09,03,02,23,20.20
2017,09,03,02,24,20.20
2017,09,03,02,25,20.20
2017,09,03,02,26,20.20
2017,09,03,02,27,20.30
2017,09,03,02,28,20.30
2017,09,03,02,29,20.30
2017,09,03,02,30,20.30
2017,09,03,02,31,20.40
2017,09,03,02,32,20.50
2017,09,03,02,33,20.50
2017,09,03,02,34,20.60
2017,09,03,02,35,20.70
2017,09,03,02,36,20.70
2017,09,03,02,37,20.70
2017,09,03,02,38,20.80
2017,09,03,02,39,20.80
2017,09,03,02,40,20.80
2017,09,03,02,41,20.80
2017,09,03,02,42,20.80
2017,09,03,02,43,20.80
2017,09,03,02,44,20.80
2017,09,03,02,45,20.80
2017,09,03,02,46,20.80
2017,09,03,02,47,20.90
2017,09,03,02,48,21.00
2017,09,03,02,49,21.10
2017,09,03,02,50,21.20
2017,09,03,02,51,21.20
2017,09,03,02,52,21.30
2017,09,03,02,53,21.40
2017,09,03,02,54,21.50
2017,09,03,02,55,21.60
2017,09,03,02,56,21.70
2017,09,03,02,57,21.80
2017,09,03,02,58,21.80
2017,09,03,02,59,21.90
2017,09,03,03,00,21.90
2017,09,03,03,01,22.00
2017,09,03,03,02,22.10
2017,09,03,03,03,22.10
2017,09,03,03,04,22.20
2017,09,03,03,05,22.20
2017,09,03,03,06,22.30
2017,09,03,03,07,22.30
2017,09,03,03,08,22.30
2017,09,03,03,09,22.30
2017,09,03,03,10,22.30
2017,09,03,03,11,22.30
2017,09,03,03,12,22.30
2017,09,03,03,13,22.30
2017,09,03,03,14,22.30
2017,09,03,03,15,22.30
2017,09,03,03,16,22.30
2017,09,03,03,17,22.30
2017,09,03,03,18,22.30
2017,09,03,03,19,22.30
2017,09,03,03,20,22.30
2017,09,03,03,21,22.30
2017,09,03,03,22,22.30
2017,09,03,03,23,22.30
2017,09,03,03,24,22.30
2017,09,03,03,25,22.30
2017,09,03,03,26,22.30
2017,09,03,03,27,22.30
2017,09,03,03,28,22.30
2017,09,03,03,29,22.30
2017,09,03,03,30,22.20
2017,09,03,03,31,22.20
2017,09,03,03,32,22.20
2017,09,03,03,33,22.20
2017,09,03,03,34,22.20
2017,09,03,03,35,22.20
2017,09,03,03,36,22.10
2017,09,03,03,37,22.10
2017,09,03,03,38,22.10
2017,09,03,03,39,22.00
2017,09,03,03,40,22.00
2017,09,03,03,41,21.90
2017,09,03,03,42,21.80
2017,09,03,03,43,21.60
2017,09,03,03,44,21.40
2017,09,03,03,45,21.20
2017,09,03,03,46,21.00
2017,09,03,03,47,20.90
2017,09,03,03,48,20.70
2017,09,03,03,49,20.60
2017,09,03,03,50,20.50
2017,09,03,03,51,20.40
2017,09,03,03,52,20.30
2017,09,03,03,53,20.30
2017,09,03,03,54,20.30
2017,09,03,03,55,20.30
2017,09,03,03,56,20.40
2017,09,03,03,57,20.40
2017,09,03,03,58,20.40
2017,09,03,03,59,20.40
2017,09,03,04,00,20.50
2017,09,03,04,01,20.50
2017,09,03,04,02,20.50
2017,09,03,04,03,20.40
2017,09,03,04,04,20.40
2017,09,03,04,05,20.40
2017,09,03,04,06,20.40
2017,09,03,04,07,20.40
2017,09,03,04,08,20.40
2017,09,03,04,09,20.40
2017,09,03,04,10,20.40
2017,09,03,04,11,20.40
2017,09,03,04,12,20.40
2017,09,03,04,13,20.50
2017,09,03,04,14,20.50
2017,09,03,04,15,20.60
2017,09,03,04,16,20.60
2017,09,03,04,17,20.60
2017,09,03,04,18,20.70
2017,09,03,04,19,20.70
2017,09,03,04,20,20.80
2017,09,03,04,21,20.80
2017,09,03,04,22,20.80
2017,09,03,04,23,20.80
2017,09,03,04,24,20.80
2017,09,03,04,25,20.80
2017,09,03,04,26,20.80
2017,09,03,04,27,20.80
2017,09,03,04,28,20.80
2017,09,03,04,29,20.80
2017,09,03,04,30,20.80
2017,09,03,04,31,20.90
2017,09,03,04,32,20.90
2017,09,03,04,33,20.90
2017,09,03,04,34,20.90
2017,09,03,04,35,20.90
2017,09,03,04,36,20.90
2017,09,03,04,37,20.90
2017,09,03,04,38,20.90
2017,09,03,04,39,20.90
2017,09,03,04,40,20.90
2017,09,03,04,41,20.90
2017,09,03,04,42,20.90
2017,09,03,04,43,20.90
2017,09,03,04,44,20.90
2017,09,03,04,45,21.00
2017,09,03,04,46,21.00
2017,09,03,04,47,21.00
2017,09,03,04,48,21.00
2017,09,03,04,49,21.00
2017,09,03,04,50,20.90
2017,09,03,04,51,20.90
2017,09,03,04,52,20.90
2017,09,03,04,53,20.80
2017,09,03,04,54,20.80
2017,09,03,04,55,20.80
2017,09,03,04,56,20.70
2017,09,03,04,57,20.70
2017,09,03,04,58,20.70
2017,09,03,04,59,20.60
2017,09,03,05,00,20.60
2017,09,03,05,01,20.60
2017,09,03,05,02,20.60
2017,09,03,05,03,20.60
2017,09,03,05,04,20.60
2017,09,03,05,05,20.60
2017,09,03,05,06,20.60
2017,09,03,05,07,20.60
2017,09,03,05,08,20.60
2017,09,03,05,09,20.60
2017,09,03,05,10,20.60
2017,09,03,05,11,20.60
2017,09,03,05,12,20.70
2017,09,03,05,13,20.70
2017,09,03,05,14,20.70
2017,09,03,05,15,20.70
2017,09,03,05,16,20.70
2017,09,03,05,17,20.70
2017,09,03,05,18,20.60
2017,09,03,05,19,20.60
2017,09,03,05,20,20.60
2017,09,03,05,21,20.60
2017,09,03,05,22,20.60
2017,09,03,05,23,20.60
2017,09,03,05,24,20.60
2017,09,03,05,25,20.60
2017,09,03,05,26,20.60
2017,09,03,05,27,20.60
2017,09,03,05,28,20.60
2017,09,03,05,29,20.60
2017,09,03,05,30,20.60
2017,09,03,05,31,20.60
2017,09,03,05,32,20.60
2017,09,03,05,33,20.60
2017,09,03,05,34,20.50
2017,09,03,05,35,20.50
2017,09,03,05,36,20.40
2017,09,03,05,37,20.40
2017,09,03,05,38,20.30
2017,09,03,05,39,20.30
2017,09,03,05,40,20.20
2017,09,03,05,41,20.10
2017,09,03,05,42,20.00
2017,09,03,05,43,20.00
2017,09,03,05,44,19.90
2017,09,03,05,45,19.80
2017,09,03,05,46,19.70
2017,09,03,05,47,19.70
2017,09,03,05,48,19.60
2017,09,03,05,49,19.60
2017,09,03,05,50,19.50
2017,09,03,05,51,19.50
2017,09,03,05,52,19.40
2017,09,03,05,53,19.40
2017,09,03,05,54,19.40
2017,09,03,05,55,19.40
2017,09,03,05,56,19.40
2017,09,03,05,57,19.40
2017,09,03,05,58,19.40
2017,09,03,05,59,19.40
2017,09,03,06,00,19.40
2017,09,03,06,01,19.40
2017,09,03,06,02,19.40
2017,09,03,06,03,19.40
2017,09,03,06,04,19.40
2017,09,03,06,05,19.40
2017,09,03,06,06,19.40
2017,09,03,06,07,19.40
2017,09,03,06,08,19.40
2017,09,03,06,09,19.40
2017,09,03,06,10,19.50
2017,09,03,06,11,19.50
2017,09,03,06,12,19.50
2017,09,03,06,13,19.50
2017,09,03,06,14,19.50
2017,09,03,06,15,19.50
2017,09,03,06,16,19.50
2017,09,03,06,17,19.50
2017,09,03,06,18,19.50
2017,09,03,06,19,19.50
2017,09,03,06,20,19.50
2017,09,03,06,21,19.50
2017,09,03,06,22,19.50
2017,09,03,06,23,19.50
2017,09,03,06,24,19.50
2017,09,03,06,25,19.50
2017,09,03,06,26,19.50
2017,09,03,06,27,19.50
2017,09,03,06,28,19.50
2017,09,03,06,29,19.50
2017,09,03,06,30,19.50
2017,09,03,06,31,19.50
2017,09,03,06,32,19.50
2017,09,03,06,33,19.40
2017,09,03,06,34,19.40
2017,09,03,06,35,19.40
2017,09,03,06,36,19.40
2017,09,03,06,37,19.40
2017,09,03,06,38,19.40
2017,09,03,06,39,19.30
2017,09,03,06,40,19.30
2017,09,03,06,41,19.30
2017,09,03,06,42,19.40
2017,09,03,06,43,19.40
2017,09,03,06,44,19.40
2017,09,03,06,45,19.50
2017,09,03,06,46,19.50
2017,09,03,06,47,19.60
2017,09,03,06,48,19.60
2017,09,03,06,49,19.70
2017,09,03,06,50,19.70
2017,09,03,06,51,19.70
2017,09,03,06,52,19.70
2017,09,03,06,53,19.70
2017,09,03,06,54,19.70
2017,09,03,06,55,19.70
2017,09,03,06,56,19.70
2017,09,03,06,57,19.80
2017,09,03,06,58,19.90
2017,09,03,06,59,19.90
2017,09,03,07,00,20.00
2017,09,03,07,01,20.10
2017,09,03,07,02,20.10
2017,09,03,07,03,20.20
2017,09,03,07,04,20.20
2017,09,03,07,05,20.20
2017,09,03,07,06,20.30
2017,09,03,07,07,20.30
2017,09,03,07,08,20.30
2017,09,03,07,09,20.30
2017,09,03,07,10,20.30
2017,09,03,07,11,20.40
2017,09,03,07,12,20.40
2017,09,03,07,13,20.50
2017,09,03,07,14,20.60
2017,09,03,07,15,20.60
2017,09,03,07,16,20.70
2017,09,03,07,17,20.80
2017,09,03,07,18,20.80
2017,09,03,07,19,20.90
2017,09,03,07,20,20.90
2017,09,03,07,21,21.00
2017,09,03,07,22,21.00
2017,09,03,07,23,21.00
2017,09,03,07,24,21.00
2017,09,03,07,25,21.00
2017,09,03,07,26,21.00
2017,09,03,07,27,21.00
2017,09,03,07,28,21.00
2017,09,03,07,29,21.00
2017,09,03,07,30,21.10
2017,09,03,07,31,21.10
2017,09,03,07,32,21.10
2017,09,03,07,33,21.10
2017,09,03,07,34,21.10
2017,09,03,07,35,21.10
2017,09,03,07,36,21.10
2017,09,03,07,37,21.10
2017,09,03,07,38,21.00
2017,09,03,07,39,20.90
2017,09,03,07,40,20.90
2017,09,03,07,41,20.90
2017,09,03,07,42,20.80
2017,09,03,07,43,20.80
2017,09,03,07,44,20.70
2017,09,03,07,45,20.70
2017,09,03,07,46,20.70
2017,09,03,07,47,20.60
2017,09,03,07,48,20.60
2017,09,03,07,49,20.60
2017,09,03,07,50,20.60
2017,09,03,07,51,20.60
2017,09,03,07,52,20.60
2017,09,03,07,53,20.70
2017,09,03,07,54,20.70
2017,09,03,07,55,20.70
2017,09,03,07,56,20.70
2017,09,03,07,57,20.70
2017,09,03,07,58,20.80
2017,09,03,07,59,20.80
2017,09,03,08,00,20.80
2017,09,03,08,01,20.90
2017,09,03,08,02,21.00
2017,09,03,08,03,21.00
2017,09,03,08,04,21.10
2017,09,03,08,05,21.20
2017,09,03,08,06,21.30
2017,09,03,08,07,21.40
2017,09,03,08,08,21.40
2017,09,03,08,09,21.50
2017,09,03,08,10,21.50
2017,09,03,08,11,21.60
2017,09,03,08,12,21.60
2017,09,03,08,13,21.60
2017,09,03,08,14,21.60
2017,09,03,08,15,21.70
2017,09,03,08,16,21.70
2017,09,03,08,17,21.70
2017,09,03,08,18,21.80
2017,09,03,08,19,21.80
2017,09,03,08,20,21.80
2017,09,03,08,21,21.80
2017,09,03,08,22,21.90
2017,09,03,08,23,21.90
2017,09,03,08,24,22.00
2017,09,03,08,25,22.00
2017,09,03,08,26,22.00
2017,09,03,08,27,22.00
2017,09,03,08,28,22.00
2017,09,03,08,29,22.00
2017,09,03,08,30,22.10
2017,09,03,08,31,22.10
2017,09,03,08,32,22.20
2017,09,03,08,33,22.20
2017,09,03,08,34,22.30
2017,09,03,08,35,22.40
2017,09,03,08,36,22.50
2017,09,03,08,37,22.60
2017,09,03,08,38,22.70
2017,09,03,08,39,22.80
2017,09,03,08,40,22.80
2017,09,03,08,41,22.80
2017,09,03,08,42,22.80
2017,09,03,08,43,22.80
2017,09,03,08,44,22.80
2017,09,03,08,45,22.80
2017,09,03,08,46,22.80
2017,09,03,08,47,22.90
2017,09,03,08,48,22.90
2017,09,03,08,49,22.90
2017,09,03,08,50,23.00
2017,09,03,08,51,23.00
2017,09,03,08,52,23.00
2017,09,03,08,53,23.10
2017,09,03,08,54,23.10
2017,09,03,08,55,23.10
2017,09,03,08,56,23.10
2017,09,03,08,57,23.00
2017,09,03,08,58,23.00
2017,09,03,08,59,22.90
2017,09,03,09,00,22.90
2017,09,03,09,01,23.00
2017,09,03,09,02,23.00
2017,09,03,09,03,23.10
2017,09,03,09,04,23.20
2017,09,03,09,05,23.20
2017,09,03,09,06,23.20
2017,09,03,09,07,23.30
2017,09,03,09,08,23.30
2017,09,03,09,09,23.40
2017,09,03,09,10,23.50
2017,09,03,09,11,23.60
2017,09,03,09,12,23.60
2017,09,03,09,13,23.70
2017,09,03,09,14,23.70
2017,09,03,09,15,23.70
2017,09,03,09,16,23.80
2017,09,03,09,17,23.80
2017,09,03,09,18,23.80
2017,09,03,09,19,23.90
2017,09,03,09,20,23.90
2017,09,03,09,21,24.00
2017,09,03,09,22,24.10
2017,09,03,09,23,24.10
2017,09,03,09,24,24.10
2017,09,03,09,25,24.20
2017,09,03,09,26,24.20
2017,09,03,09,27,24.20
2017,09,03,09,28,24.20
2017,09,03,09,29,24.20
2017,09,03,09,30,24.20
2017,09,03,09,31,24.30
2017,09,03,09,32,24.40
2017,09,03,09,33,24.50
2017,09,03,09,34,24.50
2017,09,03,09,35,24.60
2017,09,03,09,36,24.70
2017,09,03,09,37,24.70
2017,09,03,09,38,24.80
2017,09,03,09,39,24.80
2017,09,03,09,40,24.70
2017,09,03,09,41,24.80
2017,09,03,09,42,24.80
2017,09,03,09,43,24.80
2017,09,03,09,44,24.80
2017,09,03,09,45,24.70
2017,09,03,09,46,24.70
2017,09,03,09,47,24.60
2017,09,03,09,48,24.60
2017,09,03,09,49,24.60
2017,09,03,09,50,24.60
2017,09,03,09,51,24.70
2017,09,03,09,52,24.70
2017,09,03,09,53,24.70
2017,09,03,09,54,24.80
2017,09,03,09,55,24.80
2017,09,03,09,56,24.80
2017,09,03,09,57,24.80
2017,09,03,09,58,24.60
2017,09,03,09,59,24.60
2017,09,03,10,00,24.60
2017,09,03,10,01,24.70
2017,09,03,10,02,24.70
2017,09,03,10,03,24.80
2017,09,03,10,04,24.80
2017,09,03,10,05,24.80
2017,09,03,10,06,24.90
2017,09,03,10,07,24.90
2017,09,03,10,08,25.00
2017,09,03,10,09,25.10
2017,09,03,10,10,25.10
2017,09,03,10,11,25.10
2017,09,03,10,12,25.10
2017,09,03,10,13,25.10
2017,09,03,10,14,25.20
2017,09,03,10,15,25.20
2017,09,03,10,16,25.20
2017,09,03,10,17,25.20
2017,09,03,10,18,25.20
2017,09,03,10,19,25.20
2017,09,03,10,20,25.20
2017,09,03,10,21,25.20
2017,09,03,10,22,25.30
2017,09,03,10,23,25.30
2017,09,03,10,24,25.20
2017,09,03,10,25,25.20
2017,09,03,10,26,25.30
2017,09,03,10,27,25.40
2017,09,03,10,28,25.50
2017,09,03,10,29,25.60
2017,09,03,10,30,25.70
2017,09,03,10,31,25.80
2017,09,03,10,32,25.90
2017,09,03,10,33,25.90
2017,09,03,10,34,26.00
2017,09,03,10,35,26.10
2017,09,03,10,36,26.10
2017,09,03,10,37,26.20
2017,09,03,10,38,26.20
2017,09,03,10,39,26.20
2017,09,03,10,40,26.20
2017,09,03,10,41,26.20
2017,09,03,10,42,26.30
2017,09,03,10,43,26.40
2017,09,03,10,44,26.50
2017,09,03,10,45,26.60
2017,09,03,10,46,26.80
2017,09,03,10,47,26.80
2017,09,03,10,48,26.90
2017,09,03,10,49,26.90
2017,09,03,10,50,26.90
2017,09,03,10,51,26.80
2017,09,03,10,52,26.90
2017,09,03,10,53,26.90
2017,09,03,10,54,26.90
2017,09,03,10,55,26.80
2017,09,03,10,56,26.80
2017,09,03,10,57,26.80
2017,09,03,10,58,26.80
2017,09,03,10,59,26.80
2017,09,03,11,00,26.80
2017,09,03,11,01,26.80
2017,09,03,11,02,26.80
2017,09,03,11,03,26.70
2017,09,03,11,04,26.70
2017,09,03,11,05,26.80
2017,09,03,11,06,26.80
2017,09,03,11,07,26.90
2017,09,03,11,08,26.90
2017,09,03,11,09,27.00
2017,09,03,11,10,27.00
2017,09,03,11,11,27.00
2017,09,03,11,12,27.00
2017,09,03,11,13,27.10
2017,09,03,11,14,27.10
2017,09,03,11,15,27.10
2017,09,03,11,16,27.20
2017,09,03,11,17,27.20
2017,09,03,11,18,27.30
2017,09,03,11,19,27.30
2017,09,03,11,20,27.40
2017,09,03,11,21,27.50
2017,09,03,11,22,27.60
2017,09,03,11,23,27.60
2017,09,03,11,24,27.70
2017,09,03,11,25,27.80
2017,09,03,11,26,27.90
2017,09,03,11,27,27.90
2017,09,03,11,28,27.80
2017,09,03,11,29,27.80
2017,09,03,11,30,27.70
2017,09,03,11,31,27.60
2017,09,03,11,32,27.50
2017,09,03,11,33,27.40
2017,09,03,11,34,27.30
2017,09,03,11,35,27.30
2017,09,03,11,36,27.30
2017,09,03,11,37,27.30
2017,09,03,11,38,27.30
2017,09,03,11,39,27.40
2017,09,03,11,40,27.50
2017,09,03,11,41,27.50
2017,09,03,11,42,27.50
2017,09,03,11,43,27.40
2017,09,03,11,44,27.40
2017,09,03,11,45,27.30
2017,09,03,11,46,27.20
2017,09,03,11,47,27.20
2017,09,03,11,48,27.10
2017,09,03,11,49,27.20
2017,09,03,11,50,27.20
2017,09,03,11,51,27.20
2017,09,03,11,52,27.20
2017,09,03,11,53,27.20
2017,09,03,11,54,27.20
2017,09,03,11,55,27.20
2017,09,03,11,56,27.20
2017,09,03,11,57,27.20
2017,09,03,11,58,27.20
2017,09,03,11,59,27.20
2017,09,03,12,00,27.20
2017,09,03,12,01,27.20
2017,09,03,12,02,27.20
2017,09,03,12,03,27.10
2017,09,03,12,04,27.00
2017,09,03,12,05,26.90
2017,09,03,12,06,26.90
2017,09,03,12,07,26.80
2017,09,03,12,08,26.80
2017,09,03,12,09,26.70
2017,09,03,12,10,26.70
2017,09,03,12,11,26.70
2017,09,03,12,12,26.70
2017,09,03,12,13,26.80
2017,09,03,12,14,26.70
2017,09,03,12,15,26.70
2017,09,03,12,16,26.70
2017,09,03,12,17,26.70
2017,09,03,12,18,26.70
2017,09,03,12,19,26.70
2017,09,03,12,20,26.80
2017,09,03,12,21,26.80
2017,09,03,12,22,26.90
2017,09,03,12,23,26.90
2017,09,03,12,24,26.90
2017,09,03,12,25,26.90
2017,09,03,12,26,26.90
2017,09,03,12,27,26.90
2017,09,03,12,28,27.00
2017,09,03,12,29,27.00
2017,09,03,12,30,27.10
2017,09,03,12,31,27.10
2017,09,03,12,32,27.10
2017,09,03,12,33,27.10
2017,09,03,12,34,27.20
2017,09,03,12,35,27.30
2017,09,03,12,36,27.40
2017,09,03,12,37,27.50
2017,09,03,12,38,27.50
2017,09,03,12,39,27.60
2017,09,03,12,40,27.70
2017,09,03,12,41,27.80
2017,09,03,12,42,27.90
2017,09,03,12,43,27.90
2017,09,03,12,44,28.00
2017,09,03,12,45,28.10
2017,09,03,12,46,28.10
2017,09,03,12,47,28.10
2017,09,03,12,48,28.10
2017,09,03,12,49,28.10
2017,09,03,12,50,28.20
2017,09,03,12,51,28.20
2017,09,03,12,52,28.20
2017,09,03,12,53,28.20
2017,09,03,12,54,28.30
2017,09,03,12,55,28.30
2017,09,03,12,56,28.30
2017,09,03,12,57,28.40
2017,09,03,12,58,28.50
2017,09,03,12,59,28.60
2017,09,03,13,00,28.70
2017,09,03,13,01,28.80
2017,09,03,13,02,28.90
2017,09,03,13,03,29.00
2017,09,03,13,04,29.00
2017,09,03,13,05,29.10
2017,09,03,13,06,29.10
2017,09,03,13,07,29.20
2017,09,03,13,08,29.30
2017,09,03,13,09,29.30
2017,09,03,13,10,29.30
2017,09,03,13,11,29.30
2017,09,03,13,12,29.30
2017,09,03,13,13,29.30
2017,09,03,13,14,29.30
2017,09,03,13,15,29.30
2017,09,03,13,16,29.20
2017,09,03,13,17,29.20
2017,09,03,13,18,29.20
2017,09,03,13,19,29.20
2017,09,03,13,20,29.20
2017,09,03,13,21,29.20
2017,09,03,13,22,29.20
2017,09,03,13,23,29.20
2017,09,03,13,24,29.20
2017,09,03,13,25,29.20
2017,09,03,13,26,29.20
2017,09,03,13,27,29.30
2017,09,03,13,28,29.30
2017,09,03,13,29,29.30
2017,09,03,13,30,29.30
2017,09,03,13,31,29.30
2017,09,03,13,32,29.20
2017,09,03,13,33,29.10
2017,09,03,13,34,29.10
2017,09,03,13,35,29.10
2017,09,03,13,36,29.20
2017,09,03,13,37,29.20
2017,09,03,13,38,29.20
2017,09,03,13,39,29.10
2017,09,03,13,40,29.10
2017,09,03,13,41,29.00
2017,09,03,13,42,29.00
2017,09,03,13,43,29.10
2017,09,03,13,44,29.10
2017,09,03,13,45,29.20
2017,09,03,13,46,29.30
2017,09,03,13,47,29.30
2017,09,03,13,48,29.20
2017,09,03,13,49,29.20
2017,09,03,13,50,29.20
2017,09,03,13,51,29.30
2017,09,03,13,52,29.30
2017,09,03,13,53,29.20
2017,09,03,13,54,29.20
2017,09,03,13,55,29.20
2017,09,03,13,56,29.00
2017,09,03,13,57,28.90
2017,09,03,13,58,28.80
2017,09,03,13,59,28.80
2017,09,03,14,00,28.80
2017,09,03,14,01,28.80
2017,09,03,14,02,28.90
2017,09,03,14,03,28.90
2017,09,03,14,04,29.00
2017,09,03,14,05,29.10
2017,09,03,14,06,29.10
2017,09,03,14,07,29.10
2017,09,03,14,08,29.20
2017,09,03,14,09,29.30
2017,09,03,14,10,29.40
2017,09,03,14,11,29.40
2017,09,03,14,12,29.50
2017,09,03,14,13,29.60
2017,09,03,14,14,29.60
2017,09,03,14,15,29.60
2017,09,03,14,16,29.60
2017,09,03,14,17,29.70
2017,09,03,14,18,29.70
2017,09,03,14,19,29.80
2017,09,03,14,20,29.90
2017,09,03,14,21,30.00
2017,09,03,14,22,30.00
2017,09,03,14,23,29.80
2017,09,03,14,24,29.60
2017,09,03,14,25,29.40
2017,09,03,14,26,29.30
2017,09,03,14,27,29.20
2017,09,03,14,28,29.20
2017,09,03,14,29,29.20
2017,09,03,14,30,29.30
2017,09,03,14,31,29.40
2017,09,03,14,32,29.40
2017,09,03,14,33,29.50
2017,09,03,14,34,29.60
2017,09,03,14,35,29.60
2017,09,03,14,36,29.60
2017,09,03,14,37,29.60
2017,09,03,14,38,29.60
2017,09,03,14,39,29.70
2017,09,03,14,40,29.70
2017,09,03,14,41,29.60
2017,09,03,14,42,29.70
2017,09,03,14,43,29.60
2017,09,03,14,44,29.60
2017,09,03,14,45,29.60
2017,09,03,14,46,29.60
2017,09,03,14,47,29.70
2017,09,03,14,48,29.80
2017,09,03,14,49,29.90
2017,09,03,14,50,30.00
2017,09,03,14,51,30.10
2017,09,03,14,52,30.20
2017,09,03,14,53,30.20
2017,09,03,14,54,30.20
2017,09,03,14,55,30.30
2017,09,03,14,56,30.30
2017,09,03,14,57,30.40
2017,09,03,14,58,30.40
2017,09,03,14,59,30.50
2017,09,03,15,00,30.50
2017,09,03,15,01,30.60
2017,09,03,15,02,30.60
2017,09,03,15,03,30.60
2017,09,03,15,04,30.60
2017,09,03,15,05,30.60
2017,09,03,15,06,30.70
2017,09,03,15,07,30.70
2017,09,03,15,08,30.80
2017,09,03,15,09,30.80
2017,09,03,15,10,30.80
2017,09,03,15,11,30.80
2017,09,03,15,12,30.90
2017,09,03,15,13,31.00
2017,09,03,15,14,31.10
2017,09,03,15,15,31.10
2017,09,03,15,16,31.20
2017,09,03,15,17,31.30
2017,09,03,15,18,31.40
2017,09,03,15,19,31.50
2017,09,03,15,20,31.60
2017,09,03,15,21,31.60
2017,09,03,15,22,31.60
2017,09,03,15,23,31.60
2017,09,03,15,24,31.50
2017,09,03,15,25,31.50
2017,09,03,15,26,31.50
2017,09,03,15,27,31.50
2017,09,03,15,28,31.50
2017,09,03,15,29,31.50
2017,09,03,15,30,31.40
2017,09,03,15,31,31.40
2017,09,03,15,32,31.40
2017,09,03,15,33,31.40
2017,09,03,15,34,31.50
2017,09,03,15,35,31.50
2017,09,03,15,36,31.50
2017,09,03,15,37,31.50
2017,09,03,15,38,31.60
2017,09,03,15,39,31.60
2017,09,03,15,40,31.60
2017,09,03,15,41,31.60
2017,09,03,15,42,31.60
2017,09,03,15,43,31.70
2017,09,03,15,44,31.70
2017,09,03,15,45,31.80
2017,09,03,15,46,31.90
2017,09,03,15,47,32.10
2017,09,03,15,48,32.10
2017,09,03,15,49,32.20
2017,09,03,15,50,32.30
2017,09,03,15,51,32.40
2017,09,03,15,52,32.50
2017,09,03,15,53,32.50
2017,09,03,15,54,32.60
2017,09,03,15,55,32.60
2017,09,03,15,56,32.50
2017,09,03,15,57,32.40
2017,09,03,15,58,32.30
2017,09,03,15,59,32.20
2017,09,03,16,00,32.00
2017,09,03,16,01,31.90
2017,09,03,16,02,31.80
2017,09,03,16,03,31.80
2017,09,03,16,04,31.70
2017,09,03,16,05,31.70
2017,09,03,16,06,31.70
2017,09,03,16,07,31.70
2017,09,03,16,08,31.60
2017,09,03,16,09,31.70
2017,09,03,16,10,31.70
2017,09,03,16,11,31.70
2017,09,03,16,12,31.70
2017,09,03,16,13,31.80
2017,09,03,16,14,31.80
2017,09,03,16,15,31.80
2017,09,03,16,16,31.80
2017,09,03,16,17,31.80
2017,09,03,16,18,31.80
2017,09,03,16,19,31.90
2017,09,03,16,20,31.90
2017,09,03,16,21,31.90
2017,09,03,16,22,31.90
2017,09,03,16,23,31.90
2017,09,03,16,24,31.90
2017,09,03,16,25,32.00
2017,09,03,16,26,32.00
2017,09,03,16,27,32.00
2017,09,03,16,28,32.00
2017,09,03,16,29,32.00
2017,09,03,16,30,32.10
2017,09,03,16,31,32.20
2017,09,03,16,32,32.20
2017,09,03,16,33,32.20
2017,09,03,16,34,32.20
2017,09,03,16,35,32.30
2017,09,03,16,36,32.30
2017,09,03,16,37,32.30
2017,09,03,16,38,32.30
2017,09,03,16,39,32.30
2017,09,03,16,40,32.20
2017,09,03,16,41,32.20
2017,09,03,16,42,32.20
2017,09,03,16,43,32.20
2017,09,03,16,44,32.20
2017,09,03,16,45,32.10
2017,09,03,16,46,32.10
2017,09,03,16,47,32.10
2017,09,03,16,48,32.10
2017,09,03,16,49,32.10
2017,09,03,16,50,32.10
2017,09,03,16,51,32.10
2017,09,03,16,52,32.10
2017,09,03,16,53,32.10
2017,09,03,16,54,32.20
2017,09,03,16,55,32.20
2017,09,03,16,56,32.20
2017,09,03,16,57,32.20
2017,09,03,16,58,32.30
2017,09,03,16,59,32.30
2017,09,03,17,00,32.20
2017,09,03,17,01,32.20
2017,09,03,17,02,32.30
2017,09,03,17,03,32.30
2017,09,03,17,04,32.30
2017,09,03,17,05,32.30
2017,09,03,17,06,32.30
2017,09,03,17,07,32.30
2017,09,03,17,08,32.20
2017,09,03,17,09,32.20
2017,09,03,17,10,32.20
2017,09,03,17,11,32.10
2017,09,03,17,12,32.10
2017,09,03,17,13,32.10
2017,09,03,17,14,32.10
2017,09,03,17,15,32.10
2017,09,03,17,16,32.10
2017,09,03,17,17,32.10
2017,09,03,17,18,32.10
2017,09,03,17,19,32.10